TimeEDT,TemperatureF,Dew PointF,Humidity,Sea Level PressureIn,VisibilityMPH,Wind Direction,Wind SpeedMPH,Gust SpeedMPH,PrecipitationIn,Events,Conditions,WindDirDegrees,DateUTC
12:53 AM,68.0,64.0,87,30.18,10.0,ENE,3.5,-,N/A,,Partly Cloudy,60,2013-06-22 04:53:00
1:53 AM,68.0,64.9,90,30.16,10.0,Calm,Calm,-,N/A,,Partly Cloudy,0,2013-06-22 05:53:00
2:53 AM,66.9,64.0,90,30.16,10.0,ENE,3.5,-,N/A,,Clear,70,2013-06-22 06:53:00
3:53 AM,64.9,64.0,97,30.16,8.0,ENE,3.5,-,N/A,,Clear,70,2013-06-22 07:53:00
4:53 AM,64.9,64.0,97,30.14,10.0,East,3.5,-,N/A,,Clear,100,2013-06-22 08:53:00
5:53 AM,64.9,64.0,97,30.15,10.0,North,3.5,-,N/A,,Clear,350,2013-06-22 09:53:00
6:53 AM,64.9,63.0,93,30.19,8.0,WSW,3.5,-,N/A,,Scattered Clouds,240,2013-06-22 10:53:00
7:53 AM,66.9,64.9,93,30.21,9.0,SE,3.5,-,N/A,,Mostly Cloudy,140,2013-06-22 11:53:00
8:53 AM,71.1,64.9,81,30.22,10.0,Calm,Calm,-,N/A,,Scattered Clouds,0,2013-06-22 12:53:00
9:53 AM,75.0,66.0,73,30.23,10.0,WNW,4.6,-,N/A,,Scattered Clouds,300,2013-06-22 13:53:00
10:53 AM,78.1,64.9,64,30.22,10.0,Calm,Calm,-,N/A,,Partly Cloudy,0,2013-06-22 14:53:00
11:53 AM,80.1,66.0,62,30.22,10.0,Calm,Calm,-,N/A,,Scattered Clouds,0,2013-06-22 15:53:00
12:53 PM,82.0,64.9,56,30.21,10.0,Calm,Calm,-,N/A,,Scattered Clouds,0,2013-06-22 16:53:00
1:53 PM,84.0,64.9,53,30.19,10.0,NE,4.6,-,N/A,,Partly Cloudy,50,2013-06-22 17:53:00
2:53 PM,84.0,64.9,53,30.16,10.0,East,6.9,-,N/A,,Partly Cloudy,100,2013-06-22 18:53:00
3:53 PM,84.9,63.0,48,30.14,10.0,Variable,3.5,-,N/A,,Scattered Clouds,0,2013-06-22 19:53:00
4:53 PM,86.0,63.0,46,30.11,10.0,ENE,6.9,-,N/A,,Partly Cloudy,60,2013-06-22 20:53:00
5:53 PM,84.9,63.0,48,30.09,10.0,East,6.9,-,N/A,,Partly Cloudy,80,2013-06-22 21:53:00
6:53 PM,84.0,61.0,46,30.08,10.0,NE,4.6,-,N/A,,Partly Cloudy,40,2013-06-22 22:53:00
7:53 PM,82.0,61.0,49,30.06,10.0,NE,5.8,-,N/A,,Partly Cloudy,50,2013-06-22 23:53:00
8:53 PM,80.1,61.0,52,30.07,10.0,NNE,3.5,-,N/A,,Partly Cloudy,20,2013-06-23 00:53:00
9:53 PM,77.0,61.0,58,30.10,10.0,WNW,3.5,-,N/A,,Partly Cloudy,300,2013-06-23 01:53:00
10:53 PM,73.9,63.0,68,30.12,10.0,Calm,Calm,-,N/A,,Partly Cloudy,0,2013-06-23 02:53:00
11:53 PM,73.9,64.9,73,30.12,10.0,Calm,Calm,-,0.00,,Mostly Cloudy,0,2013-06-23 03:53:00